Zurück zum Katalog

NSS 9

AktivKommunikationGEO
NORAD 33749·PAYLOAD·🇱🇺 Luxembourg

Gestartet Feb 12, 2009 von Guiana Space Centre

Loading…

TLE

AktuellSource: CelesTrak SupGP

Epoche: Sep 13, 2026, 23:30 UTC

1 33749C 09008A   26256.97916667  .00000161  00000+0  00000+0 0  2567
2 33749   1.4849  81.6177 0002119  76.3042  10.6133  1.00270644    18

Verfolge NSS 9 in Echtzeit mit AllMySat

Download on the App Store